Tracking 35334 objects as of 13-Sep-2026
HD Live streaming from Space Station
objects crossing your sky now

STARLINK-32475

Track STARLINK-32475 now!
10-day predictions
STARLINK-32475 is classified as:


NORAD ID: 61728
Int'l Code: 2024-196X
Launch date: October 30, 2024
Source: United States (US)
Launch site: AIR FORCE EASTERN TEST RANGE (AFETR)
Your satellite tracking list
Your tracking list is empty




NASA's NSSDC Master Catalog

Two Line Element Set (TLE):
1 61728U 24196X   26256.53963134  .00011916  00000-0  36347-3 0  9995
2 61728  53.1600 306.2107 0001408  90.0567 270.0597 15.34380864105952
Source of the keplerian elements: AFSPC